This is the latest recevied weather packets stored in our database for station/object KK6MIG-13. If no packets are shown the sender has not sent any weather packets the latest 10 day(s).
| Time | Temp. | Humidity | Pressure | Rain* | Wind** | Luminosity | Snow |
|---|---|---|---|---|---|---|---|
| 1788127999 | 15° C | 5% | 1012.2 hPa | 0 mm | - | 573 W/m² | - |
| 1788127939 | 15° C | 4% | 1012.3 hPa | 0 mm | - | 485 W/m² | - |
| 1788127879 | 15° C | 5% | 1012.2 hPa | 0 mm | - | 485 W/m² | - |
| 1788127818 | 15° C | 4% | 1012.3 hPa | 0 mm | - | 455 W/m² | - |
| 1788127758 | 15° C | 1% | 1012.3 hPa | 0 mm | - | 446 W/m² | - |
| 1788127693 | 15° C | 1% | 1012.3 hPa | 0 mm | - | 475 W/m² | - |
| 1788127632 | 15° C | 1% | 1012.3 hPa | 0 mm | - | 480 W/m² | - |
| 1788127572 | 14.44° C | 1% | 1012.3 hPa | 0 mm | - | 475 W/m² | - |
| 1788127512 | 14.44° C | 1% | 1012.3 hPa | 0 mm | - | 499 W/m² | - |
| 1788127452 | 14.44° C | 2% | 1012.4 hPa | 0 mm | - | 497 W/m² | - |
| 1788127386 | 14.44° C | 2% | 1012.4 hPa | 0 mm | - | 476 W/m² | - |
| 1788127337 | 14.44° C | 4% | 1012.3 hPa | 0 mm | - | 497 W/m² | - |
| 1788127266 | 15° C | 4% | 1012.4 hPa | 0 mm | - | 557 W/m² | - |
| 1788127206 | 15° C | 1% | 1012.4 hPa | 0 mm | - | 485 W/m² | - |
| 1788127146 | 15° C | 1% | 1012.4 hPa | 0 mm | - | 536 W/m² | - |
| 1788127080 | 15° C | 1% | 1012.5 hPa | 0 mm | - | 517 W/m² | - |
| 1788127020 | 15° C | 3% | 1012.5 hPa | 0 mm | - | 522 W/m² | - |
| 1788126960 | 15° C | 1% | 1012.5 hPa | 0 mm | - | 522 W/m² | - |
| 1788126901 | 15° C | 5% | 1012.5 hPa | 0 mm | - | 522 W/m² | - |
| 1788126840 | 15° C | 7% | 1012.6 hPa | 0 mm | - | 455 W/m² | - |
| 1788126774 | 15° C | 6% | 1012.6 hPa | 0 mm | - | 503 W/m² | - |
| 1788126715 | 15° C | 2% | 1012.6 hPa | 0 mm | - | 445 W/m² | - |
| 1788126655 | 15° C | 2% | 1012.6 hPa | 0 mm | - | 545 W/m² | - |
| 1788126594 | 15° C | 2% | 1012.6 hPa | 0 mm | - | 557 W/m² | - |
| 1788126534 | 15° C | 5% | 1012.6 hPa | 0 mm | - | 529 W/m² | - |
* Rain latest hour (hover to see other rain measurements)
** Current wind speed in m/s (hover to see current wind gust speed)